• MPC Preparation (Info)

  • MPEC 2011-K45 : 2011 KU15

    The following Minor Planet Electronic Circular may be linked-to from your own Web pages, but must not otherwise be redistributed electronically.

    A form allowing access to any MPEC is at the bottom of this page.


    Read MPEC 2011-K44 Read MPEC 2011-K46


    M.P.E.C. 2011-K45                                Issued 2011 May 29, 17:04 UT
    
         The Minor Planet Electronic Circulars contain information on unusual
             minor planets and routine data on comets.  They are published
       on behalf of Commission 20 of the International Astronomical Union by the
              Minor Planet Center, Smithsonian Astrophysical Observatory,
                              Cambridge, MA 02138, U.S.A.
    
                 Prepared using the Tamkin Foundation Computer Network
    
                                  MPC@CFA.HARVARD.EDU
                URL https://www.minorplanetcenter.net/    ISSN 1523-6714
    
                                       2011 KU15
    
    Observations:
         K11K15U* C2011 05 26.30164 15 23 40.88 -11 22 09.4          20.8 VrEK045G96
         K11K15U  C2011 05 26.31126 15 23 37.35 -11 21 48.2          21.1 VrEK045G96
         K11K15U  C2011 05 26.32101 15 23 33.79 -11 21 26.7          21.0 VrEK045G96
         K11K15U  C2011 05 26.33073 15 23 30.19 -11 21 05.1          21.7 VrEK045G96
         K11K15U  C2011 05 28.25979 15 11 21.98 -10 05 31.7          21.0 VrEK045G96
         K11K15U  C2011 05 28.26780 15 11 18.67 -10 05 11.3          20.5 VrEK045G96
         K11K15U  C2011 05 28.27586 15 11 15.39 -10 04 51.2          20.5 VrEK045G96
         K11K15U  C2011 05 28.28392 15 11 12.12 -10 04 31.0          19.0 VrEK045G96
         K11K15U KC2011 05 28.96628 15 06 37.05 -09 35 26.6          20.9 RoEK045J04
         K11K15U KC2011 05 28.96979 15 06 35.56 -09 35 17.2          20.7 RoEK045J04
         K11K15U KC2011 05 28.97331 15 06 34.03 -09 35 08.0          20.6 RoEK045J04
         K11K15U  C2011 05 29.21970 15 04 52.31 -09 24 21.7          21.2 RoEK045H01
         K11K15U KC2011 05 29.22969 15 04 48.07 -09 23 54.9          20.8 RoEK045H01
         K11K15U KC2011 05 29.23612 15 04 45.32 -09 23 38.4          21.1 RoEK045H01
         K11K15U KC2011 05 29.24472 15 04 41.65 -09 23 15.8          21.1 RoEK045H01
    
    Observer details:
    G96 Mt. Lemmon Survey.  Observers S. M. Larson, A. Boattini.  Measurers
        J. D. Ahern, E. C. Beshore, A. Boattini, G. J. Garradd, A. R. Gibbs,
        A. D. Grauer, R. E. Hill, R. A. Kowalski, S. M. Larson, R. H. McNaught.
        1.5-m reflector + CCD.
    H01 Magdalena Ridge Observatory, Socorro.  Observers W. H. Ryan, E. V. Ryan.
        Measurer W. H. Ryan.  2.4-m f/8.9 reflector + CCD.
    J04 ESA Optical Ground Station, Tenerife.  Observers M. Busch, R. Kresken.
        Measurer A. Knoefel.  1.0-m f/4.4 reflector + CCD.
    
    Orbital elements:
    2011 KU15                                           PHA, Earth MOID = 0.0479 AU
    Epoch 2011 Aug. 27.0 TT = JDT 2455800.5                 MPC
    M   9.81879              (2000.0)            P               Q
    n   0.35431127     Peri.  166.74879     +0.93040034     -0.36387778
    a   1.9779383      Node   214.69241     +0.32883200     +0.88180043
    e   0.8787167      Incl.    4.44765     +0.16194052     +0.30003494
    P   2.78           H   21.8           G   0.15           U   9
    Residuals in seconds of arc
    110526 G96  0.0   0.1+    110528 G96  0.1-  0.0     110528 J04  0.9-  0.1+
    110526 G96  0.0   0.0     110528 G96  0.3-  0.0     110529 H01  0.4+  0.2+
    110526 G96  0.3+  0.0     110528 G96  0.3-  0.0     110529 H01  0.4+  0.5+
    110526 G96  0.2-  0.0     110528 J04  0.2+  0.2-    110529 H01  0.1+  0.0
    110528 G96  0.8+  0.4-    110528 J04  0.1-  0.1+    110529 H01  0.2-  0.3-
    
    Ephemeris:
    2011 KU15                a,e,i = 1.98, 0.88, 4                   q = 0.2399
    Date    TT    R. A. (2000) Decl.     Delta      r     Elong.  Phase     V
    2011 04 29    16 45 50.6 -19 15 43   0.8296  1.7550   145.6    18.9    23.6
    ...
    2011 05 14    16 17 05.3 -16 32 01   0.5658  1.5663   166.6     8.6    22.1
    ...
    2011 05 22    15 46 40.0 -13 39 38   0.4479  1.4579   173.2     4.7    21.3
    ...
    2011 05 28    15 13 04.6 -10 16 01   0.3743  1.3727   161.0    13.9    21.1
    2011 05 29    15 06 23.3 -09 33 46   0.3635  1.3581   158.4    15.9    21.1
    2011 05 30    14 59 21.8 -08 48 50   0.3533  1.3434   155.6    18.1    21.1
    ...
    2011 06 05    14 10 02.4 -03 20 29   0.3033  1.2530   136.8    33.7    21.1
    ...
    2011 06 13    12 48 08.9 +05 56 32   0.2728  1.1256   106.9    59.7    21.4
    ...
    2011 06 28    10 14 25.0 +19 39 27   0.3256  0.8612    53.1   109.3    23.2
    
    A. U. Tomatic                (C) Copyright 2011 MPC           M.P.E.C. 2011-K45
    

    Read MPEC 2011-K44 Read MPEC 2011-K46


    MPEC number:

    Enter an MPEC number in one of the following forms:

    • 1997-B01 (the full form)
    • J97B01 (the packed version of the full form)
    • B01 (the abbreviated form)